Preview of NWS' New Version of Forecast
This preview is not operational and should not be used for support decisions.

Regional Weather Roundup (RWR)

Issued by National Weather Service (NWS)

                            
000
ASUS42 KTBW 201718
RWRFL 
FLORIDA REGIONAL WEATHER ROUNDUP
NATIONAL WEATHER SERVICE TAMPA BAY RUSKIN FL
100 PM EDT SAT JUL 20 2019

NOTE: "FAIR" INDICATES FEW OR NO CLOUDS BELOW 12,000 FEET WITH NO
SIGNIFICANT WEATHER AND/OR OBSTRUCTIONS TO VISIBILITY.

FLZ001>010-012>015-112-114-115-201800-
PANHANDLE FLORIDA
  
CITY           SKY/WX    TMP DP  RH WIND       PRES   REMARKS
PENSACOLA      LGT RAIN  77  76  96 CALM      30.12R                  
PENSACOLA NAS  LGT RAIN  77  76  96 E6        30.11S                  
MILTON NAS     PTSUNNY   77  74  90 SW5       30.11                   
CRESTVIEW      PTSUNNY   81  71  71 SW9       30.12R                  
DUKE FIELD     PTSUNNY   80  72  78 SW8       30.10S                  
VALPARAISO     FAIR      79  74  83 W5        30.10S                  
MARY ESTHER    PTSUNNY   76  73  90 SW3       30.10S                  
TRI COUNTY     PTSUNNY   83  75  77 S6        30.10F                  
PANAMA CITY    PTSUNNY   84  72  67 S9        30.10R                  
TYNDALL AFB    CLOUDY    82  72  69 W10       30.10R                  
APALACHICOLA   FAIR      86  72  62 VRB6      30.10S                  

STATION/POSITION SKY/WX   TEMP    WIND        PRES    WAVE   SWELL
                          AIR SEA DIR/SP/G            HT/PER HT/PER
                          (F)     (DEG/KT/KT) (MB)    (FT/S) (FT/S)
30.1N   87.6W              79 86  110/ 14/ 16 1019.3F   1/ 9
29.2N   88.2W              79 85   90/ 12/ 14 1019.3R   2/ 4
28.8N   86.0W                 86  120/  4/  6 1019.7R   2/ 3   2/ 4
PANAMA CITY BEAC           81 85  240/ 10/ 12 1020.0R
TOWER C                    81     110/  7/  8 1020.0R
28.5N   84.5W              84     130/  6/  8 1019.4F   2/ 4   2/ 4

$$
FLZ011-016>038-118-127-128-134-139-239-201800-
NORTH FLORIDA
  
CITY           SKY/WX    TMP DP  RH WIND       PRES   REMARKS
MARIANNA       LGT RAIN  78  74  87 W3        30.09S                  
TALLAHASSEE    FAIR      88  75  65 S10       30.09S HX  97           
PERRY          FAIR      90  74  58 CALM      30.10S HX  98           
LIVE OAK       MOSUNNY   88  72  58 CALM      30.10S                  
CROSS CITY     FAIR      91  73  56 S7        30.10S HX  99           
LAKE CITY      FAIR      86  70  58 CALM      30.10F                  
GAINESVILLE    FAIR      90  71  53 CALM      30.12F HX  96           
WILLISTON      PTSUNNY   88  74  64 W3        30.09F HX  96           
PALATKA        FAIR      90  75  62 SE6       30.09F HX 100           
MAYPORT NAS    FAIR      88  76  67 E9        30.09F HX  99           
JACKSONVILLE   FAIR      90  73  57 W6        30.08F HX  98           
JAX CECIL      PTSUNNY   97  73  46 VRB3      30.09F HX 107           
FERNANDINA BEA FAIR      87  78  74 E9G16     30.10F HX  99           
ST AUGUSTINE   FAIR      88  77  69 SE13      30.10F HX 100           
PALM COAST     PTSUNNY   90  72  55 S6        30.09F HX  96           

STATION/POSITION SKY/WX   TEMP    WIND        PRES    WAVE   SWELL
                          AIR SEA DIR/SP/G            HT/PER HT/PER
                          (F)     (DEG/KT/KT) (MB)    (FT/S) (FT/S)
SHELL POINT      NOT AVBL
KEATON BEACH               84     230/  8/  9 1019.8R
CEDAR KEY                  84     180/  5/  7 1019.6R
FERNANDINA                 91 83  140/  7/  9 1020.2
30.7N   81.3W                 85                N/A     2/ 9
MAYPORT                    85 80  120/  7/ 12 1019.6
31.4N   80.9W              82 85  220/  6/  8 1019.5S   2/ 9   2/ 9
ST AUGUSTINE               81 77  120/ 10/ 10 1019.3F

$$
FLZ040-043>046-052-053-057-058-063-144-201800-
INTERIOR CENTRAL FLORIDA
  
CITY           SKY/WX    TMP DP  RH WIND       PRES   REMARKS
OCALA          FAIR      90  74  59 VRB7      30.10F HX  99           
LEESBURG       FAIR      90  72  55 VRB5      30.09F HX  97           
SANFORD        FAIR      88  73  61 SE8       30.09F HX  95           
ORLANDO EXEC   FAIR      91  70  49 E8        30.09F HX  96           
ORLANDO INTL   FAIR      89  72  56 VRB3      30.09F HX  96           
KISSIMMEE      FAIR      90  72  55 S8        30.10F HX  97           
WINTER HAVEN   FAIR      90  72  55 S5        30.10F HX  97           
LAKELAND       MOSUNNY   90  72  55 CALM      30.10F HX  96           
SEBRING        FAIR      90  73  56 E8        30.08F HX  98           
OKEECHOBEE     TSTM      79  73  83 N14G20    30.09S                  

$$
FLZ041-047-054-059-064-141-147-201800-
EAST CENTRAL FLORIDA
  
CITY           SKY/WX    TMP DP  RH WIND       PRES   REMARKS
ORMOND BEACH   MOSUNNY   86  75  70 SE7       30.09F HX  95           
DAYTONA BEACH  PTSUNNY   87  77  72 VRB5      30.09F HX  99           
DELAND         FAIR      88  73  62 S7        30.09F HX  96           
NEW SMYRNA BEA MOSUNNY   86  75  70 SE5       30.11F HX  95           
JFK SPACE CTR  MOSUNNY   87  64  46 CALM      30.10S                  
TITUSVILLE     PTSUNNY   90  73  58 VRB7      30.12S HX  98           
CAPE CANAVERAL MOSUNNY   89  50  26 E7        30.10R                  
PATRICK AFB    FAIR      84  78  84 NE8       30.10F HX  95           
MELBOURNE      FAIR      86  76  71 E6        30.09F HX  96           
VERO BEACH     FAIR      89  75  63 E13       30.10F HX  99           
FT PIERCE      FAIR      85  74  69 E8        30.09F                  
STUART         MOSUNNY   90  73  58 MISG      30.11S HX  98           

STATION/POSITION SKY/WX   TEMP    WIND        PRES    WAVE   SWELL
                          AIR SEA DIR/SP/G            HT/PER HT/PER
                          (F)     (DEG/KT/KT) (MB)    (FT/S) (FT/S)
28.5N   80.2W              82 85   50/  4/  6 1019.7R   1/ 8   2/ 8
28.9N   78.5W              85 87  170/  6/ 10 1020.4    3/ 8   3/ 8
TRIDENT PIER               86 82  160/  4/  5 1021.0
28.4N   80.5W                 83                N/A     1/ 8
27.5N   80.2W                 83                N/A     2/ 9

$$
FLZ050-056-061-142-242-148-248-149-249-151-251-155-255-
160-260-201800-
WEST CENTRAL FLORIDA
  
CITY           SKY/WX    TMP DP  RH WIND       PRES   REMARKS
CRYSTAL RIVER  FAIR      91  72  52 CALM      30.09S HX  98           
INVERNESS      PTSUNNY   90  77  66 CALM      30.10S HX 102           
BROOKSVILLE    FAIR      90  73  57 S5        30.09F HX  98           
CLEARWATER AIR FAIR      88  72  58 E7        30.09F                  
ST PETE CLEARW FAIR      88  72  58 VRB5      30.08F                  
TAMPA INTL     FAIR      89  71  55 SW3       30.09F HX  95           
TAMPA EXEC     FAIR      90  73  58 CALM      30.09F HX  98           
PLANT CITY     FAIR     N/A N/A N/A MISG      30.11S                  
MACDILL AFB    FAIR      89  74  61 SE6       30.08F HX  97           
PETER O KNIGHT CLOUDY    90  77  66 SW7       30.09F HX 102           
ST PETERSBURG  FAIR      87  73  62 SE3       30.07F                  
SARASOTA       FAIR      90  74  59 CALM      30.06F HX  99           
VENICE         PTSUNNY   88  77  70 SW9       30.08F HX 100           

STATION/POSITION SKY/WX   TEMP    WIND        PRES    WAVE   SWELL
                          AIR SEA DIR/SP/G            HT/PER HT/PER
                          (F)     (DEG/KT/KT) (MB)    (FT/S) (FT/S)
27.3N   84.2W                 87                N/A     2/ 4
CLEARWATER BEACH           88 88  170/  5/  7 1019.2
MIDDLE TAMPA BAY           88      CALM  /  3 1019.3
VENICE                     85 86  220/  7/  8 1018.3F

$$
FLZ066-069-070-075>078-162-262-165-265-201800-
SOUTHWEST FLORIDA AND KEYS
  
CITY           SKY/WX    TMP DP  RH WIND       PRES   REMARKS
PUNTA GORDA    FAIR      90  72  55 SE6       30.08F HX  97           
FT MYERS       FAIR      90  74  59 SE9       30.05F HX  99           
SOUTHWEST INTL FAIR      90  74  59 E7        30.06F HX  99           
MARCO ISLAND   FAIR      92  73  53 MISG      30.06F HX 100           
IMMOKALEE      FAIR      93  73  52 VRB5      30.04F HX 102           
MARATHON       FAIR      91  77  63 E10       30.06S HX 104           
KEY WEST NAS   PTSUNNY   91  76  61 SE13      30.05S HX 103           
KEY WEST INTL  FAIR      90  77  65 SE8       30.06F HX 103           

STATION/POSITION SKY/WX   TEMP    WIND        PRES    WAVE   SWELL
                          AIR SEA DIR/SP/G            HT/PER HT/PER
                          (F)     (DEG/KT/KT) (MB)    (FT/S) (FT/S)
NAPLES                     90 87              1018.2
26.0N   85.6W              85 86  120/  8/ 10 1018.2F   2/ 5   2/ 5
DRY TORTUGAS               86     120/  6/  7 1018.3F
SAND KEY                   85     110/  7/  9 1016.9F
SOMBRERO KEY               85     120/ 11/ 13 1018.2
LONG KEY                   85                 1017.4

$$
FLZ067-068-071>074-168-172>174-201800-
SOUTHEAST FLORIDA 
  
CITY           SKY/WX    TMP DP  RH WIND       PRES   REMARKS
W PALM BEACH   PTSUNNY   90  72  55 SE15      30.09F HX  97           
BOCA RATON     MOSUNNY   91  77  62 SE12      30.09S HX 105           
FT LAUDER-EXEC FAIR      86  75  69 SE14      30.08S HX  95           
FT LAUDERDALE  PTSUNNY   85  75  72 SE9       30.08S                  
POMPANO BEACH  FAIR      87  74  64 E13       30.08F HX  95           
PEMBROKE PINES FAIR      84  74  71 SE7       30.10S                  
OPA LOCKA      LGT RAIN  83  74  74 E6        30.09S                  
MIAMI          PTSUNNY   84  74  71 E5        30.08F                  
WEST KENDALL     N/A    N/A N/A N/A MISG      30.07F                  
HOMESTEAD      FAIR      89  77  67 E10       30.07S HX 100           

STATION/POSITION SKY/WX   TEMP    WIND        PRES    WAVE   SWELL
                          AIR SEA DIR/SP/G            HT/PER HT/PER
                          (F)     (DEG/KT/KT) (MB)    (FT/S) (FT/S)
VIRGINIA KEY               83 88   30/  1/  3 1018.2F
LAKE WORTH                 83 84  140/  9/ 10 1020.3
FOWEY ROCKS                84 85  130/ 11/ 13 1018.7F
SETTLEMENT POINT           86     160/ 11/ 14 1019.3F

$$